Time,TemperatureF,DewpointF,PressureIn,WindDirection,WindDirectionDegrees,WindSpeedMPH,WindSpeedGustMPH,Humidity,HourlyPrecipIn,Conditions,Clouds,dailyrainin,SoftwareType,DateUTC
2013-08-11 00:00:00,59.9,55.7,0.00,North,357,0.0,0.0,86,0.00,,---,0.00,VWS V13.01,2013-08-11 04:00:00,
2013-08-11 00:01:00,59.9,55.7,0.00,North,357,0.0,0.0,86,0.00,,---,0.00,VWS V13.01,2013-08-11 04:01:00,
2013-08-11 00:03:00,59.7,55.5,0.00,North,357,0.0,0.0,86,0.00,,---,0.00,VWS V13.01,2013-08-11 04:03:00,
2013-08-11 00:04:00,59.7,55.5,0.00,North,357,0.0,0.0,86,0.00,,---,0.00,VWS V13.01,2013-08-11 04:04:00,
2013-08-11 00:09:00,59.7,55.2,0.00,North,357,0.0,0.0,85,0.00,,---,0.00,VWS V13.01,2013-08-11 04:09:00,
2013-08-11 00:14:00,59.5,55.0,0.00,North,357,0.0,0.0,85,0.00,,---,0.00,VWS V13.01,2013-08-11 04:14:00,
2013-08-11 00:19:00,59.4,54.9,0.00,North,357,0.0,0.0,85,0.00,,---,0.00,VWS V13.01,2013-08-11 04:19:00,
2013-08-11 00:24:00,59.4,54.9,0.00,North,357,0.0,0.0,85,0.00,,---,0.00,VWS V13.01,2013-08-11 04:24:00,
2013-08-11 00:29:00,59.2,54.7,0.00,North,357,0.0,0.0,85,0.00,,---,0.00,VWS V13.01,2013-08-11 04:29:00,
2013-08-11 00:34:00,59.2,55.0,0.00,North,357,0.0,0.0,86,0.00,,---,0.00,VWS V13.01,2013-08-11 04:34:00,
2013-08-11 00:39:00,58.8,54.7,0.00,North,357,0.0,0.0,86,0.00,,---,0.00,VWS V13.01,2013-08-11 04:39:00,
2013-08-11 00:44:00,58.8,54.7,0.00,North,357,0.0,0.0,86,0.00,,---,0.00,VWS V13.01,2013-08-11 04:44:00,
2013-08-11 00:49:00,58.6,54.5,0.00,North,357,0.0,0.0,86,0.00,,---,0.00,VWS V13.01,2013-08-11 04:49:00,
2013-08-11 00:54:00,58.5,54.3,0.00,North,357,0.0,0.0,86,0.00,,---,0.00,VWS V13.01,2013-08-11 04:54:00,
2013-08-11 00:59:00,58.3,53.8,0.00,North,357,0.0,0.0,85,0.00,,---,0.00,VWS V13.01,2013-08-11 04:59:00,
2013-08-11 01:05:00,58.3,54.1,0.00,North,357,0.0,0.0,86,0.00,,---,0.00,VWS V13.01,2013-08-11 05:05:00,
2013-08-11 01:10:00,58.1,53.6,0.00,North,357,0.0,0.0,85,0.00,,---,0.00,VWS V13.01,2013-08-11 05:10:00,
2013-08-11 01:17:00,57.9,53.4,0.00,North,357,0.0,0.0,85,0.00,,---,0.00,VWS V13.01,2013-08-11 05:17:00,
2013-08-11 01:22:00,57.7,53.3,0.00,North,357,0.0,0.0,85,0.00,,---,0.00,VWS V13.01,2013-08-11 05:22:00,
2013-08-11 01:27:00,57.6,53.1,0.00,North,357,0.0,0.0,85,0.00,,---,0.00,VWS V13.01,2013-08-11 05:27:00,
2013-08-11 01:32:00,57.4,52.9,0.00,North,357,0.0,0.0,85,0.00,,---,0.00,VWS V13.01,2013-08-11 05:32:00,
2013-08-11 01:38:00,57.2,52.7,0.00,North,357,0.0,0.0,85,0.00,,---,0.00,VWS V13.01,2013-08-11 05:38:00,
2013-08-11 01:43:00,57.2,52.7,0.00,North,357,0.0,0.0,85,0.00,,---,0.00,VWS V13.01,2013-08-11 05:43:00,
2013-08-11 01:48:00,57.0,52.9,0.00,North,357,0.0,0.0,86,0.00,,---,0.00,VWS V13.01,2013-08-11 05:48:00,
2013-08-11 01:53:00,57.0,52.9,0.00,North,357,0.0,0.0,86,0.00,,---,0.00,VWS V13.01,2013-08-11 05:53:00,
2013-08-11 01:58:00,56.8,52.7,0.00,North,357,0.0,0.0,86,0.00,,---,0.00,VWS V13.01,2013-08-11 05:58:00,
2013-08-11 02:03:00,56.8,52.7,0.00,North,357,0.0,0.0,86,0.00,,---,0.00,VWS V13.01,2013-08-11 06:03:00,
2013-08-11 02:10:00,56.7,52.2,0.00,North,357,0.0,0.0,85,0.00,,---,0.00,VWS V13.01,2013-08-11 06:10:00,
2013-08-11 02:15:00,56.5,52.0,0.00,North,357,0.0,0.0,85,0.00,,---,0.00,VWS V13.01,2013-08-11 06:15:00,
2013-08-11 02:20:00,56.5,52.0,0.00,North,357,0.0,0.0,85,0.00,,---,0.00,VWS V13.01,2013-08-11 06:20:00,
2013-08-11 02:25:00,56.3,51.9,0.00,North,357,0.0,0.0,85,0.00,,---,0.00,VWS V13.01,2013-08-11 06:25:00,
2013-08-11 02:30:00,55.9,51.5,0.00,North,357,0.0,0.0,85,0.00,,---,0.00,VWS V13.01,2013-08-11 06:30:00,
2013-08-11 02:36:00,55.9,51.8,0.00,North,357,0.0,0.0,86,0.00,,---,0.00,VWS V13.01,2013-08-11 06:36:00,
2013-08-11 02:42:00,55.9,51.8,0.00,North,357,0.0,0.0,86,0.00,,---,0.00,VWS V13.01,2013-08-11 06:42:00,
2013-08-11 02:47:00,55.8,51.6,0.00,North,357,0.0,0.0,86,0.00,,---,0.00,VWS V13.01,2013-08-11 06:47:00,
2013-08-11 02:53:00,55.6,51.2,0.00,North,357,0.0,0.0,85,0.00,,---,0.00,VWS V13.01,2013-08-11 06:53:00,
2013-08-11 02:58:00,55.6,51.2,0.00,North,357,0.0,0.0,85,0.00,,---,0.00,VWS V13.01,2013-08-11 06:58:00,
2013-08-11 03:03:00,55.4,51.0,0.00,North,357,0.0,0.0,85,0.00,,---,0.00,VWS V13.01,2013-08-11 07:03:00,
2013-08-11 03:08:00,55.4,51.0,0.00,North,357,0.0,0.0,85,0.00,,---,0.00,VWS V13.01,2013-08-11 07:08:00,
2013-08-11 03:13:00,55.2,51.1,0.00,North,357,0.0,0.0,86,0.00,,---,0.00,VWS V13.01,2013-08-11 07:13:00,
2013-08-11 03:19:00,55.0,50.9,0.00,North,357,0.0,0.0,86,0.00,,---,0.00,VWS V13.01,2013-08-11 07:19:00,
2013-08-11 03:26:00,55.0,50.9,0.00,North,357,0.0,0.0,86,0.00,,---,0.00,VWS V13.01,2013-08-11 07:26:00,
2013-08-11 03:31:00,54.9,50.8,0.00,North,357,0.0,0.0,86,0.00,,---,0.00,VWS V13.01,2013-08-11 07:31:00,
2013-08-11 03:36:00,54.7,50.6,0.00,North,357,0.0,0.0,86,0.00,,---,0.00,VWS V13.01,2013-08-11 07:36:00,
2013-08-11 03:42:00,54.7,50.6,0.00,North,357,0.0,0.0,86,0.00,,---,0.00,VWS V13.01,2013-08-11 07:42:00,
2013-08-11 03:47:00,54.5,50.4,0.00,North,357,0.0,0.0,86,0.00,,---,0.00,VWS V13.01,2013-08-11 07:47:00,
2013-08-11 03:52:00,54.5,50.4,0.00,North,357,0.0,0.0,86,0.00,,---,0.00,VWS V13.01,2013-08-11 07:52:00,
2013-08-11 03:58:00,54.5,50.7,0.00,North,357,0.0,0.0,87,0.00,,---,0.00,VWS V13.01,2013-08-11 07:58:00,
2013-08-11 04:05:00,54.3,50.2,0.00,North,357,0.0,0.0,86,0.00,,---,0.00,VWS V13.01,2013-08-11 08:05:00,
2013-08-11 04:10:00,54.3,50.5,0.00,North,357,0.0,0.0,87,0.00,,---,0.00,VWS V13.01,2013-08-11 08:10:00,
2013-08-11 04:16:00,54.3,50.5,0.00,North,357,0.0,0.0,87,0.00,,---,0.00,VWS V13.01,2013-08-11 08:16:00,
2013-08-11 04:21:00,54.3,50.5,0.00,North,357,0.0,0.0,87,0.00,,---,0.00,VWS V13.01,2013-08-11 08:21:00,
2013-08-11 04:27:00,54.1,50.4,0.00,North,357,0.0,0.0,87,0.00,,---,0.00,VWS V13.01,2013-08-11 08:27:00,
2013-08-11 04:32:00,54.0,50.2,0.00,North,357,0.0,0.0,87,0.00,,---,0.00,VWS V13.01,2013-08-11 08:32:00,
2013-08-11 04:39:00,54.0,50.2,0.00,North,357,0.0,0.0,87,0.00,,---,0.00,VWS V13.01,2013-08-11 08:39:00,
2013-08-11 04:44:00,54.0,50.2,0.00,North,357,0.0,0.0,87,0.00,,---,0.00,VWS V13.01,2013-08-11 08:44:00,
2013-08-11 04:50:00,53.8,49.7,0.00,North,357,0.0,0.0,86,0.00,,---,0.00,VWS V13.01,2013-08-11 08:50:00,
2013-08-11 04:55:00,53.6,49.5,0.00,North,357,0.0,0.0,86,0.00,,---,0.00,VWS V13.01,2013-08-11 08:55:00,
2013-08-11 05:01:00,53.6,49.8,0.00,North,357,0.0,0.0,87,0.00,,---,0.00,VWS V13.01,2013-08-11 09:01:00,
2013-08-11 05:06:00,53.6,49.5,0.00,North,357,0.0,0.0,86,0.00,,---,0.00,VWS V13.01,2013-08-11 09:06:00,
2013-08-11 05:11:00,53.4,49.7,0.00,North,357,0.0,0.0,87,0.00,,---,0.00,VWS V13.01,2013-08-11 09:11:00,
2013-08-11 05:16:00,53.4,49.7,0.00,North,357,0.0,0.0,87,0.00,,---,0.00,VWS V13.01,2013-08-11 09:16:00,
2013-08-11 05:22:00,53.2,49.2,0.00,North,357,0.0,0.0,86,0.00,,---,0.00,VWS V13.01,2013-08-11 09:22:00,
2013-08-11 05:27:00,53.2,49.5,0.00,North,357,0.0,0.0,87,0.00,,---,0.00,VWS V13.01,2013-08-11 09:27:00,
2013-08-11 05:32:00,53.2,49.5,0.00,North,357,0.0,0.0,87,0.00,,---,0.00,VWS V13.01,2013-08-11 09:32:00,
2013-08-11 05:37:00,53.1,49.3,0.00,North,357,0.0,0.0,87,0.00,,---,0.00,VWS V13.01,2013-08-11 09:37:00,
2013-08-11 05:42:00,53.1,49.3,0.00,North,357,0.0,0.0,87,0.00,,---,0.00,VWS V13.01,2013-08-11 09:42:00,
2013-08-11 05:48:00,53.1,49.3,0.00,North,357,0.0,0.0,87,0.00,,---,0.00,VWS V13.01,2013-08-11 09:48:00,
2013-08-11 05:53:00,52.9,49.1,0.00,North,357,0.0,0.0,87,0.00,,---,0.00,VWS V13.01,2013-08-11 09:53:00,
2013-08-11 05:58:00,52.9,49.1,0.00,North,357,0.0,0.0,87,0.00,,---,0.00,VWS V13.01,2013-08-11 09:58:00,
2013-08-11 06:04:00,52.7,49.0,0.00,North,357,0.0,0.0,87,0.00,,---,0.00,VWS V13.01,2013-08-11 10:04:00,
2013-08-11 06:09:00,52.7,49.0,0.00,North,357,0.0,0.0,87,0.00,,---,0.00,VWS V13.01,2013-08-11 10:09:00,
2013-08-11 06:15:00,52.7,49.0,0.00,North,357,0.0,0.0,87,0.00,,---,0.00,VWS V13.01,2013-08-11 10:15:00,
2013-08-11 06:20:00,52.7,49.0,0.00,North,357,0.0,0.0,87,0.00,,---,0.00,VWS V13.01,2013-08-11 10:20:00,
2013-08-11 06:25:00,52.7,49.2,0.00,North,357,0.0,0.0,88,0.00,,---,0.00,VWS V13.01,2013-08-11 10:25:00,
2013-08-11 06:31:00,52.7,49.0,0.00,North,357,0.0,0.0,87,0.00,,---,0.00,VWS V13.01,2013-08-11 10:31:00,
2013-08-11 06:36:00,52.7,49.2,0.00,North,357,0.0,0.0,88,0.00,,---,0.00,VWS V13.01,2013-08-11 10:36:00,
2013-08-11 06:42:00,52.9,49.4,0.00,North,357,0.0,0.0,88,0.00,,---,0.00,VWS V13.01,2013-08-11 10:42:00,
2013-08-11 06:47:00,52.9,49.4,0.00,North,357,0.0,0.0,88,0.00,,---,0.00,VWS V13.01,2013-08-11 10:47:00,
2013-08-11 06:52:00,53.1,49.6,0.00,North,357,0.0,0.0,88,0.00,,---,0.00,VWS V13.01,2013-08-11 10:52:00,
2013-08-11 06:58:00,53.2,50.1,0.00,North,357,0.0,0.0,89,0.00,,---,0.00,VWS V13.01,2013-08-11 10:58:00,
2013-08-11 07:03:00,53.4,50.3,0.00,North,357,0.0,0.0,89,0.00,,---,0.00,VWS V13.01,2013-08-11 11:03:00,
2013-08-11 07:08:00,54.3,51.2,0.00,North,357,0.0,0.0,89,0.00,,---,0.00,VWS V13.01,2013-08-11 11:08:00,
2013-08-11 07:14:00,55.6,52.7,0.00,North,357,0.0,0.0,90,0.00,,---,0.00,VWS V13.01,2013-08-11 11:14:00,
2013-08-11 07:19:00,57.0,54.1,0.00,North,357,0.0,0.0,90,0.00,,---,0.00,VWS V13.01,2013-08-11 11:19:00,
2013-08-11 07:25:00,58.5,55.2,0.00,North,357,0.0,0.0,89,0.00,,---,0.00,VWS V13.01,2013-08-11 11:25:00,
2013-08-11 07:30:00,59.7,55.8,0.00,North,357,0.0,0.0,87,0.00,,---,0.00,VWS V13.01,2013-08-11 11:30:00,
2013-08-11 07:35:00,60.6,56.4,0.00,North,357,0.0,0.0,86,0.00,,---,0.00,VWS V13.01,2013-08-11 11:35:00,
2013-08-11 07:40:00,61.9,56.7,0.00,North,357,0.0,0.0,83,0.00,,---,0.00,VWS V13.01,2013-08-11 11:40:00,
2013-08-11 07:45:00,62.8,56.5,0.00,North,357,0.0,0.0,80,0.00,,---,0.00,VWS V13.01,2013-08-11 11:45:00,
2013-08-11 07:50:00,63.9,57.2,0.00,North,357,0.0,0.0,79,0.00,,---,0.00,VWS V13.01,2013-08-11 11:50:00,
2013-08-11 07:55:00,64.8,57.0,0.00,North,357,0.0,0.0,76,0.00,,---,0.00,VWS V13.01,2013-08-11 11:55:00,
2013-08-11 08:01:00,65.8,57.3,0.00,North,357,0.0,0.0,74,0.00,,---,0.00,VWS V13.01,2013-08-11 12:01:00,
2013-08-11 08:07:00,66.6,57.3,0.00,North,357,0.0,0.0,72,0.00,,---,0.00,VWS V13.01,2013-08-11 12:07:00,
2013-08-11 08:12:00,67.1,57.0,0.00,North,357,0.0,0.0,70,0.00,,---,0.00,VWS V13.01,2013-08-11 12:12:00,
2013-08-11 08:18:00,67.6,56.7,0.00,North,357,0.0,0.0,68,0.00,,---,0.00,VWS V13.01,2013-08-11 12:18:00,
2013-08-11 08:23:00,68.2,56.8,0.00,North,357,0.0,0.0,67,0.00,,---,0.00,VWS V13.01,2013-08-11 12:23:00,
2013-08-11 08:28:00,68.5,56.3,0.00,North,357,0.0,0.0,65,0.00,,---,0.00,VWS V13.01,2013-08-11 12:28:00,
2013-08-11 08:33:00,68.9,56.7,0.00,North,357,0.0,0.0,65,0.00,,---,0.00,VWS V13.01,2013-08-11 12:33:00,
2013-08-11 08:38:00,69.3,56.1,0.00,North,357,0.0,0.0,63,0.00,,---,0.00,VWS V13.01,2013-08-11 12:38:00,
2013-08-11 08:44:00,69.3,55.7,0.00,North,357,0.0,0.0,62,0.00,,---,0.00,VWS V13.01,2013-08-11 12:44:00,
2013-08-11 08:49:00,69.4,55.4,0.00,North,357,0.0,0.0,61,0.00,,---,0.00,VWS V13.01,2013-08-11 12:49:00,
2013-08-11 08:54:00,69.8,54.8,0.00,North,357,0.0,0.0,59,0.00,,---,0.00,VWS V13.01,2013-08-11 12:54:00,
2013-08-11 09:00:00,70.0,55.0,0.00,North,357,0.0,0.0,59,0.00,,---,0.00,VWS V13.01,2013-08-11 13:00:00,
2013-08-11 09:06:00,70.2,54.2,0.00,North,357,0.0,0.0,57,0.00,,---,0.00,VWS V13.01,2013-08-11 13:06:00,
2013-08-11 09:12:00,70.3,54.9,0.00,North,357,0.0,0.0,58,0.00,,---,0.00,VWS V13.01,2013-08-11 13:12:00,
2013-08-11 09:18:00,70.9,54.9,0.00,North,357,0.0,0.0,57,0.00,,---,0.00,VWS V13.01,2013-08-11 13:18:00,
2013-08-11 09:23:00,71.1,54.6,0.00,North,357,0.0,0.0,56,0.00,,---,0.00,VWS V13.01,2013-08-11 13:23:00,
2013-08-11 09:29:00,71.1,54.6,0.00,North,357,0.0,0.0,56,0.00,,---,0.00,VWS V13.01,2013-08-11 13:29:00,
2013-08-11 09:35:00,71.1,53.6,0.00,North,357,0.0,0.0,54,0.00,,---,0.00,VWS V13.01,2013-08-11 13:35:00,
2013-08-11 09:40:00,71.2,53.8,0.00,North,357,0.0,0.0,54,0.00,,---,0.00,VWS V13.01,2013-08-11 13:40:00,
2013-08-11 09:46:00,71.1,53.6,0.00,North,357,0.0,0.0,54,0.00,,---,0.00,VWS V13.01,2013-08-11 13:46:00,
2013-08-11 09:52:00,71.6,53.1,0.00,North,357,0.0,0.0,52,0.00,,---,0.00,VWS V13.01,2013-08-11 13:52:00,
2013-08-11 09:57:00,71.8,53.8,0.00,North,357,0.0,0.0,53,0.00,,---,0.00,VWS V13.01,2013-08-11 13:57:00,
2013-08-11 10:04:00,71.8,52.7,0.00,North,357,0.0,0.0,51,0.00,,---,0.00,VWS V13.01,2013-08-11 14:04:00,
2013-08-11 10:09:00,72.1,53.6,0.00,North,357,0.0,0.0,52,0.00,,---,0.00,VWS V13.01,2013-08-11 14:09:00,
2013-08-11 10:15:00,72.1,52.5,0.00,North,357,0.0,0.0,50,0.00,,---,0.00,VWS V13.01,2013-08-11 14:15:00,
2013-08-11 10:21:00,72.1,51.9,0.00,North,357,0.0,0.0,49,0.00,,---,0.00,VWS V13.01,2013-08-11 14:21:00,
2013-08-11 10:26:00,71.8,51.1,0.00,North,357,0.0,0.0,48,0.00,,---,0.00,VWS V13.01,2013-08-11 14:26:00,
2013-08-11 10:31:00,71.4,51.8,0.00,North,357,0.0,0.0,50,0.00,,---,0.00,VWS V13.01,2013-08-11 14:31:00,
2013-08-11 10:36:00,71.1,52.0,0.00,North,357,0.0,0.0,51,0.00,,---,0.00,VWS V13.01,2013-08-11 14:36:00,
2013-08-11 10:42:00,71.8,52.2,0.00,North,357,0.0,0.0,50,0.00,,---,0.00,VWS V13.01,2013-08-11 14:42:00,
2013-08-11 10:47:00,71.8,51.6,0.00,North,357,0.0,0.0,49,0.00,,---,0.00,VWS V13.01,2013-08-11 14:47:00,
2013-08-11 10:53:00,72.9,53.2,0.00,North,357,0.0,0.0,50,0.00,,---,0.00,VWS V13.01,2013-08-11 14:53:00,
2013-08-11 10:58:00,73.4,52.0,0.00,North,357,0.0,0.0,47,0.00,,---,0.00,VWS V13.01,2013-08-11 14:58:00,
2013-08-11 11:04:00,72.7,51.9,0.00,North,357,0.0,0.0,48,0.00,,---,0.00,VWS V13.01,2013-08-11 15:04:00,
2013-08-11 11:09:00,71.6,50.9,0.00,North,357,0.0,0.0,48,0.00,,---,0.00,VWS V13.01,2013-08-11 15:09:00,
2013-08-11 11:14:00,72.7,52.4,0.00,North,357,0.0,0.0,49,0.00,,---,0.00,VWS V13.01,2013-08-11 15:14:00,
2013-08-11 11:20:00,73.6,52.7,0.00,North,357,0.0,0.0,48,0.00,,---,0.00,VWS V13.01,2013-08-11 15:20:00,
2013-08-11 11:25:00,74.3,52.8,0.00,North,357,0.0,0.0,47,0.00,,---,0.00,VWS V13.01,2013-08-11 15:25:00,
2013-08-11 11:30:00,73.4,50.8,0.00,North,357,0.0,0.0,45,0.00,,---,0.00,VWS V13.01,2013-08-11 15:30:00,
2013-08-11 11:36:00,74.1,51.4,0.00,North,357,0.0,0.0,45,0.00,,---,0.00,VWS V13.01,2013-08-11 15:36:00,
2013-08-11 11:41:00,73.4,51.4,0.00,North,357,0.0,0.0,46,0.00,,---,0.00,VWS V13.01,2013-08-11 15:41:00,
2013-08-11 11:46:00,73.0,50.5,0.00,North,357,0.0,0.0,45,0.00,,---,0.00,VWS V13.01,2013-08-11 15:46:00,
2013-08-11 11:51:00,73.8,51.7,0.00,North,357,0.0,0.0,46,0.00,,---,0.00,VWS V13.01,2013-08-11 15:51:00,
2013-08-11 11:57:00,73.0,49.9,0.00,North,357,0.0,0.0,44,0.00,,---,0.00,VWS V13.01,2013-08-11 15:57:00,
2013-08-11 12:02:00,73.6,51.5,0.00,North,357,0.0,0.0,46,0.00,,---,0.00,VWS V13.01,2013-08-11 16:02:00,
2013-08-11 12:09:00,74.3,52.2,0.00,North,357,0.0,0.0,46,0.00,,---,0.00,VWS V13.01,2013-08-11 16:09:00,
2013-08-11 12:14:00,74.8,52.7,0.00,North,357,0.0,0.0,46,0.00,,---,0.00,VWS V13.01,2013-08-11 16:14:00,
2013-08-11 12:20:00,74.8,51.5,0.00,North,357,0.0,0.0,44,0.00,,---,0.00,VWS V13.01,2013-08-11 16:20:00,
2013-08-11 12:25:00,75.0,51.0,0.00,North,357,0.0,0.0,43,0.00,,---,0.00,VWS V13.01,2013-08-11 16:25:00,
2013-08-11 12:31:00,75.0,51.7,0.00,North,357,0.0,0.0,44,0.00,,---,0.00,VWS V13.01,2013-08-11 16:31:00,
2013-08-11 12:36:00,75.0,51.7,0.00,North,357,0.0,0.0,44,0.00,,---,0.00,VWS V13.01,2013-08-11 16:36:00,
2013-08-11 12:41:00,75.2,52.4,0.00,North,357,0.0,0.0,45,0.00,,---,0.00,VWS V13.01,2013-08-11 16:41:00,
2013-08-11 12:47:00,75.0,51.7,0.00,North,357,0.0,0.0,44,0.00,,---,0.00,VWS V13.01,2013-08-11 16:47:00,
2013-08-11 12:52:00,74.8,50.9,0.00,North,357,0.0,0.0,43,0.00,,---,0.00,VWS V13.01,2013-08-11 16:52:00,
2013-08-11 12:57:00,74.7,51.3,0.00,North,357,0.0,0.0,44,0.00,,---,0.00,VWS V13.01,2013-08-11 16:57:00,
2013-08-11 13:04:00,75.6,52.8,0.00,North,357,0.0,0.0,45,0.00,,---,0.00,VWS V13.01,2013-08-11 17:04:00,
2013-08-11 13:09:00,75.7,52.9,0.00,North,357,0.0,0.0,45,0.00,,---,0.00,VWS V13.01,2013-08-11 17:09:00,
2013-08-11 13:14:00,76.3,52.2,0.00,North,357,0.0,0.0,43,0.00,,---,0.00,VWS V13.01,2013-08-11 17:14:00,
2013-08-11 13:20:00,75.9,51.2,0.00,North,357,0.0,0.0,42,0.00,,---,0.00,VWS V13.01,2013-08-11 17:20:00,
2013-08-11 13:25:00,75.6,49.6,0.00,North,357,0.0,0.0,40,0.00,,---,0.00,VWS V13.01,2013-08-11 17:25:00,
2013-08-11 13:30:00,75.6,50.9,0.00,North,357,0.0,0.0,42,0.00,,---,0.00,VWS V13.01,2013-08-11 17:30:00,
2013-08-11 13:36:00,76.3,52.2,0.00,North,357,0.0,0.0,43,0.00,,---,0.00,VWS V13.01,2013-08-11 17:36:00,
2013-08-11 13:41:00,76.5,51.0,0.00,North,357,0.0,0.0,41,0.00,,---,0.00,VWS V13.01,2013-08-11 17:41:00,
2013-08-11 13:47:00,76.5,51.7,0.00,North,357,0.0,0.0,42,0.00,,---,0.00,VWS V13.01,2013-08-11 17:47:00,
2013-08-11 13:52:00,75.7,51.0,0.00,North,357,0.0,0.0,42,0.00,,---,0.00,VWS V13.01,2013-08-11 17:52:00,
2013-08-11 13:58:00,75.0,50.4,0.00,North,357,0.0,0.0,42,0.00,,---,0.00,VWS V13.01,2013-08-11 17:58:00,
2013-08-11 14:03:00,75.2,50.6,0.00,North,357,0.0,0.0,42,0.00,,---,0.00,VWS V13.01,2013-08-11 18:03:00,
2013-08-11 14:09:00,75.6,51.5,0.00,North,357,0.0,0.0,43,0.00,,---,0.00,VWS V13.01,2013-08-11 18:09:00,
2013-08-11 14:14:00,74.7,50.1,0.00,North,357,0.0,0.0,42,0.00,,---,0.00,VWS V13.01,2013-08-11 18:14:00,
2013-08-11 14:20:00,75.0,50.4,0.00,North,357,0.0,0.0,42,0.00,,---,0.00,VWS V13.01,2013-08-11 18:20:00,
2013-08-11 14:25:00,75.4,50.7,0.00,North,357,0.0,0.0,42,0.00,,---,0.00,VWS V13.01,2013-08-11 18:25:00,
2013-08-11 14:30:00,75.4,50.7,0.00,North,357,0.0,0.0,42,0.00,,---,0.00,VWS V13.01,2013-08-11 18:30:00,
2013-08-11 14:35:00,75.7,51.0,0.00,North,357,0.0,0.0,42,0.00,,---,0.00,VWS V13.01,2013-08-11 18:35:00,
2013-08-11 14:40:00,75.7,51.0,0.00,North,357,0.0,0.0,42,0.00,,---,0.00,VWS V13.01,2013-08-11 18:40:00,
2013-08-11 14:46:00,76.1,51.4,0.00,North,357,0.0,0.0,42,0.00,,---,0.00,VWS V13.01,2013-08-11 18:46:00,
2013-08-11 14:51:00,75.7,50.4,0.00,North,357,0.0,0.0,41,0.00,,---,0.00,VWS V13.01,2013-08-11 18:51:00,
2013-08-11 14:57:00,74.7,50.7,0.00,North,357,0.0,0.0,43,0.00,,---,0.00,VWS V13.01,2013-08-11 18:57:00,
2013-08-11 15:03:00,74.3,49.8,0.00,North,357,0.0,0.0,42,0.00,,---,0.00,VWS V13.01,2013-08-11 19:03:00,
2013-08-11 15:08:00,74.7,50.1,0.00,North,357,0.0,0.0,42,0.00,,---,0.00,VWS V13.01,2013-08-11 19:08:00,
2013-08-11 15:13:00,74.5,49.9,0.00,North,357,0.0,0.0,42,0.00,,---,0.00,VWS V13.01,2013-08-11 19:13:00,
2013-08-11 15:18:00,74.8,50.9,0.00,North,357,0.0,0.0,43,0.00,,---,0.00,VWS V13.01,2013-08-11 19:18:00,
2013-08-11 15:24:00,74.7,48.8,0.00,North,357,0.0,0.0,40,0.00,,---,0.00,VWS V13.01,2013-08-11 19:24:00,
2013-08-11 15:29:00,74.8,50.2,0.00,North,357,0.0,0.0,42,0.00,,---,0.00,VWS V13.01,2013-08-11 19:29:00,
2013-08-11 15:34:00,75.0,49.8,0.00,North,357,0.0,0.0,41,0.00,,---,0.00,VWS V13.01,2013-08-11 19:34:00,
2013-08-11 15:40:00,74.8,49.6,0.00,North,357,0.0,0.0,41,0.00,,---,0.00,VWS V13.01,2013-08-11 19:40:00,
2013-08-11 15:45:00,75.0,49.8,0.00,North,357,0.0,0.0,41,0.00,,---,0.00,VWS V13.01,2013-08-11 19:45:00,
2013-08-11 15:50:00,75.0,51.7,0.00,North,357,0.0,0.0,44,0.00,,---,0.00,VWS V13.01,2013-08-11 19:50:00,
2013-08-11 15:56:00,75.0,49.8,0.00,North,357,0.0,0.0,41,0.00,,---,0.00,VWS V13.01,2013-08-11 19:56:00,
2013-08-11 16:02:00,74.8,48.2,0.00,North,357,0.0,0.0,39,0.00,,---,0.00,VWS V13.01,2013-08-11 20:02:00,
2013-08-11 16:07:00,74.8,49.6,0.00,North,357,0.0,0.0,41,0.00,,---,0.00,VWS V13.01,2013-08-11 20:07:00,
2013-08-11 16:12:00,74.8,48.9,0.00,North,357,0.0,0.0,40,0.00,,---,0.00,VWS V13.01,2013-08-11 20:12:00,
2013-08-11 16:18:00,75.0,50.4,0.00,North,357,0.0,0.0,42,0.00,,---,0.00,VWS V13.01,2013-08-11 20:18:00,
2013-08-11 16:24:00,74.7,49.4,0.00,North,357,0.0,0.0,41,0.00,,---,0.00,VWS V13.01,2013-08-11 20:24:00,
2013-08-11 16:30:00,74.3,47.1,0.00,North,357,0.0,0.0,38,0.00,,---,0.00,VWS V13.01,2013-08-11 20:30:00,
2013-08-11 16:35:00,74.1,48.9,0.00,North,357,0.0,0.0,41,0.00,,---,0.00,VWS V13.01,2013-08-11 20:35:00,
2013-08-11 16:40:00,73.9,48.8,0.00,North,357,0.0,0.0,41,0.00,,---,0.00,VWS V13.01,2013-08-11 20:40:00,
2013-08-11 16:45:00,73.9,48.8,0.00,North,357,0.0,0.0,41,0.00,,---,0.00,VWS V13.01,2013-08-11 20:45:00,
2013-08-11 16:51:00,73.9,48.8,0.00,North,357,0.0,0.0,41,0.00,,---,0.00,VWS V13.01,2013-08-11 20:51:00,
2013-08-11 16:56:00,73.6,48.5,0.00,North,357,0.0,0.0,41,0.00,,---,0.00,VWS V13.01,2013-08-11 20:56:00,
2013-08-11 17:02:00,73.4,48.9,0.00,North,357,0.0,0.0,42,0.00,,---,0.00,VWS V13.01,2013-08-11 21:02:00,
2013-08-11 17:07:00,73.4,48.3,0.00,North,357,0.0,0.0,41,0.00,,---,0.00,VWS V13.01,2013-08-11 21:07:00,
2013-08-11 17:13:00,73.2,48.8,0.00,North,357,0.0,0.0,42,0.00,,---,0.00,VWS V13.01,2013-08-11 21:13:00,
2013-08-11 17:18:00,73.6,49.7,0.00,North,357,0.0,0.0,43,0.00,,---,0.00,VWS V13.01,2013-08-11 21:18:00,
2013-08-11 17:23:00,73.6,49.7,0.00,North,357,0.0,0.0,43,0.00,,---,0.00,VWS V13.01,2013-08-11 21:23:00,
2013-08-11 17:29:00,73.4,48.9,0.00,North,357,0.0,0.0,42,0.00,,---,0.00,VWS V13.01,2013-08-11 21:29:00,
2013-08-11 17:34:00,73.4,48.3,0.00,North,357,0.0,0.0,41,0.00,,---,0.00,VWS V13.01,2013-08-11 21:34:00,
2013-08-11 17:39:00,73.4,49.6,0.00,North,357,0.0,0.0,43,0.00,,---,0.00,VWS V13.01,2013-08-11 21:39:00,
2013-08-11 17:44:00,73.2,49.4,0.00,North,357,0.0,0.0,43,0.00,,---,0.00,VWS V13.01,2013-08-11 21:44:00,
2013-08-11 17:50:00,73.2,50.6,0.00,North,357,0.0,0.0,45,0.00,,---,0.00,VWS V13.01,2013-08-11 21:50:00,
2013-08-11 17:56:00,73.2,50.6,0.00,North,357,0.0,0.0,45,0.00,,---,0.00,VWS V13.01,2013-08-11 21:56:00,
2013-08-11 18:01:00,73.2,50.6,0.00,North,357,0.0,0.0,45,0.00,,---,0.00,VWS V13.01,2013-08-11 22:01:00,
2013-08-11 18:07:00,73.0,51.1,0.00,North,357,0.0,0.0,46,0.00,,---,0.00,VWS V13.01,2013-08-11 22:07:00,
2013-08-11 18:12:00,73.0,50.5,0.00,North,357,0.0,0.0,45,0.00,,---,0.00,VWS V13.01,2013-08-11 22:12:00,
2013-08-11 18:19:00,72.5,50.0,0.00,North,357,0.0,0.0,45,0.00,,---,0.00,VWS V13.01,2013-08-11 22:19:00,
2013-08-11 18:24:00,72.5,50.0,0.00,North,357,0.0,0.0,45,0.00,,---,0.00,VWS V13.01,2013-08-11 22:24:00,
2013-08-11 18:30:00,72.3,50.4,0.00,North,357,0.0,0.0,46,0.00,,---,0.00,VWS V13.01,2013-08-11 22:30:00,
2013-08-11 18:35:00,72.0,50.1,0.00,North,357,0.0,0.0,46,0.00,,---,0.00,VWS V13.01,2013-08-11 22:35:00,
2013-08-11 18:40:00,71.8,49.9,0.00,North,357,0.0,0.0,46,0.00,,---,0.00,VWS V13.01,2013-08-11 22:40:00,
2013-08-11 18:45:00,71.4,49.6,0.00,North,357,0.0,0.0,46,0.00,,---,0.00,VWS V13.01,2013-08-11 22:45:00,
2013-08-11 18:50:00,71.4,49.6,0.00,North,357,0.0,0.0,46,0.00,,---,0.00,VWS V13.01,2013-08-11 22:50:00,
2013-08-11 18:55:00,71.2,50.0,0.00,North,357,0.0,0.0,47,0.00,,---,0.00,VWS V13.01,2013-08-11 22:55:00,
2013-08-11 19:00:00,70.9,50.8,0.00,North,357,0.0,0.0,49,0.00,,---,0.00,VWS V13.01,2013-08-11 23:00:00,
2013-08-11 19:06:00,70.7,51.7,0.00,North,357,0.0,0.0,51,0.00,,---,0.00,VWS V13.01,2013-08-11 23:06:00,
2013-08-11 19:12:00,70.3,51.9,0.00,North,357,0.0,0.0,52,0.00,,---,0.00,VWS V13.01,2013-08-11 23:12:00,
2013-08-11 19:18:00,70.2,52.2,0.00,North,357,0.0,0.0,53,0.00,,---,0.00,VWS V13.01,2013-08-11 23:18:00,
2013-08-11 19:23:00,70.0,52.1,0.00,North,357,0.0,0.0,53,0.00,,---,0.00,VWS V13.01,2013-08-11 23:23:00,
2013-08-11 19:29:00,69.6,52.8,0.00,North,357,0.0,0.0,55,0.00,,---,0.00,VWS V13.01,2013-08-11 23:29:00,
2013-08-11 19:34:00,69.4,52.6,0.00,North,357,0.0,0.0,55,0.00,,---,0.00,VWS V13.01,2013-08-11 23:34:00,
2013-08-11 19:40:00,69.1,53.2,0.00,North,357,0.0,0.0,57,0.00,,---,0.00,VWS V13.01,2013-08-11 23:40:00,
2013-08-11 19:45:00,68.7,53.4,0.00,North,357,0.0,0.0,58,0.00,,---,0.00,VWS V13.01,2013-08-11 23:45:00,
2013-08-11 19:50:00,68.4,53.5,0.00,North,357,0.0,0.0,59,0.00,,---,0.00,VWS V13.01,2013-08-11 23:50:00,
2013-08-11 19:55:00,68.0,54.1,0.00,North,357,0.0,0.0,61,0.00,,---,0.00,VWS V13.01,2013-08-11 23:55:00,
2013-08-11 20:00:00,67.5,54.4,0.00,North,357,0.0,0.0,63,0.00,,---,0.00,VWS V13.01,2013-08-12 00:00:00,
2013-08-11 20:06:00,66.9,54.4,0.00,North,357,0.0,0.0,64,0.00,,---,0.00,VWS V13.01,2013-08-12 00:06:00,
2013-08-11 20:12:00,66.6,54.9,0.00,North,357,0.0,0.0,66,0.00,,---,0.00,VWS V13.01,2013-08-12 00:12:00,
2013-08-11 20:17:00,66.2,54.9,0.00,North,357,0.0,0.0,67,0.00,,---,0.00,VWS V13.01,2013-08-12 00:17:00,
2013-08-11 20:24:00,65.7,55.2,0.00,North,357,0.0,0.0,69,0.00,,---,0.00,VWS V13.01,2013-08-12 00:24:00,
2013-08-11 20:30:00,65.3,55.3,0.00,North,357,0.0,0.0,70,0.00,,---,0.00,VWS V13.01,2013-08-12 00:30:00,
2013-08-11 20:35:00,64.9,54.9,0.00,North,357,0.0,0.0,70,0.00,,---,0.00,VWS V13.01,2013-08-12 00:35:00,
2013-08-11 20:40:00,64.8,54.8,0.00,North,357,0.0,0.0,70,0.00,,---,0.00,VWS V13.01,2013-08-12 00:40:00,
2013-08-11 20:45:00,64.2,54.6,0.00,North,357,0.0,0.0,71,0.00,,---,0.00,VWS V13.01,2013-08-12 00:45:00,
2013-08-11 20:51:00,63.9,54.7,0.00,North,357,0.0,0.0,72,0.00,,---,0.00,VWS V13.01,2013-08-12 00:51:00,
2013-08-11 20:56:00,63.5,54.7,0.00,North,357,0.0,0.0,73,0.00,,---,0.00,VWS V13.01,2013-08-12 00:56:00,
2013-08-11 21:01:00,63.3,54.5,0.00,North,357,0.0,0.0,73,0.00,,---,0.00,VWS V13.01,2013-08-12 01:01:00,
2013-08-11 21:07:00,63.1,54.7,0.00,North,357,0.0,0.0,74,0.00,,---,0.00,VWS V13.01,2013-08-12 01:07:00,
2013-08-11 21:12:00,63.0,54.9,0.00,North,357,0.0,0.0,75,0.00,,---,0.00,VWS V13.01,2013-08-12 01:12:00,
2013-08-11 21:18:00,63.0,55.3,0.00,North,357,0.0,0.0,76,0.00,,---,0.00,VWS V13.01,2013-08-12 01:18:00,
2013-08-11 21:23:00,63.0,55.7,0.00,North,357,0.0,0.0,77,0.00,,---,0.00,VWS V13.01,2013-08-12 01:23:00,
2013-08-11 21:28:00,62.8,55.5,0.00,North,357,0.0,0.0,77,0.00,,---,0.00,VWS V13.01,2013-08-12 01:28:00,
2013-08-11 21:34:00,62.8,55.8,0.00,North,357,0.0,0.0,78,0.00,,---,0.00,VWS V13.01,2013-08-12 01:34:00,
2013-08-11 21:39:00,62.8,55.8,0.00,North,357,0.0,0.0,78,0.00,,---,0.00,VWS V13.01,2013-08-12 01:39:00,
2013-08-11 21:44:00,62.6,55.7,0.00,North,357,0.0,0.0,78,0.00,,---,0.00,VWS V13.01,2013-08-12 01:44:00,
2013-08-11 21:50:00,62.6,56.0,0.00,North,357,0.0,0.0,79,0.00,,---,0.00,VWS V13.01,2013-08-12 01:50:00,
2013-08-11 21:55:00,62.6,56.0,0.00,North,357,0.0,0.0,79,0.00,,---,0.00,VWS V13.01,2013-08-12 01:55:00,
2013-08-11 22:00:00,62.6,56.3,0.00,North,357,0.0,0.0,80,0.00,,---,0.00,VWS V13.01,2013-08-12 02:00:00,
2013-08-11 22:05:00,62.4,56.2,0.00,North,357,0.0,0.0,80,0.00,,---,0.00,VWS V13.01,2013-08-12 02:05:00,
2013-08-11 22:10:00,62.2,56.0,0.00,North,357,0.0,0.0,80,0.00,,---,0.00,VWS V13.01,2013-08-12 02:10:00,
2013-08-11 22:16:00,62.2,56.3,0.00,North,357,0.0,0.0,81,0.00,,---,0.00,VWS V13.01,2013-08-12 02:16:00,
2013-08-11 22:21:00,62.2,56.3,0.00,North,357,0.0,0.0,81,0.00,,---,0.00,VWS V13.01,2013-08-12 02:21:00,
2013-08-11 22:26:00,62.2,56.3,0.00,North,357,0.0,0.0,81,0.00,,---,0.00,VWS V13.01,2013-08-12 02:26:00,
2013-08-11 22:32:00,62.2,56.3,0.00,North,357,0.0,0.0,81,0.00,,---,0.00,VWS V13.01,2013-08-12 02:32:00,
2013-08-11 22:39:00,62.1,56.5,0.00,North,357,0.0,0.0,82,0.00,,---,0.00,VWS V13.01,2013-08-12 02:39:00,
2013-08-11 22:44:00,62.1,56.5,0.00,North,357,0.0,0.0,82,0.00,,---,0.00,VWS V13.01,2013-08-12 02:44:00,
2013-08-11 22:50:00,62.1,56.5,0.00,North,357,0.0,0.0,82,0.00,,---,0.00,VWS V13.01,2013-08-12 02:50:00,
2013-08-11 22:55:00,62.1,56.5,0.00,North,357,0.0,0.0,82,0.00,,---,0.00,VWS V13.01,2013-08-12 02:55:00,
2013-08-11 23:00:00,62.1,56.5,0.00,North,357,0.0,0.0,82,0.00,,---,0.00,VWS V13.01,2013-08-12 03:00:00,
2013-08-11 23:05:00,62.1,56.5,0.00,North,357,0.0,0.0,82,0.00,,---,0.00,VWS V13.01,2013-08-12 03:05:00,
2013-08-11 23:12:00,61.9,56.3,0.00,North,357,0.0,0.0,82,0.00,,---,0.00,VWS V13.01,2013-08-12 03:12:00,
2013-08-11 23:17:00,61.9,56.7,0.00,North,357,0.0,0.0,83,0.00,,---,0.00,VWS V13.01,2013-08-12 03:17:00,
2013-08-11 23:23:00,61.9,56.7,0.00,North,357,0.0,0.0,83,0.00,,---,0.00,VWS V13.01,2013-08-12 03:23:00,
2013-08-11 23:28:00,61.9,56.7,0.00,North,357,0.0,0.0,83,0.00,,---,0.00,VWS V13.01,2013-08-12 03:28:00,
2013-08-11 23:34:00,61.9,56.7,0.00,North,357,0.0,0.0,83,0.00,,---,0.00,VWS V13.01,2013-08-12 03:34:00,
2013-08-11 23:39:00,61.9,57.0,0.00,North,357,0.0,0.0,84,0.00,,---,0.00,VWS V13.01,2013-08-12 03:39:00,
2013-08-11 23:45:00,61.9,57.0,0.00,North,357,0.0,0.0,84,0.00,,---,0.00,VWS V13.01,2013-08-12 03:45:00,
2013-08-11 23:50:00,61.9,57.0,0.00,North,357,0.0,0.0,84,0.00,,---,0.00,VWS V13.01,2013-08-12 03:50:00,
2013-08-11 23:57:00,61.9,57.0,0.00,North,357,0.0,0.0,84,0.00,,---,0.00,VWS V13.01,2013-08-12 03:57:00,